Dewpoint
34 32 33 32 32 32 32 33 30 30 31 31 33 30 28 30 31 32 31 30 29 28 27 26 25 24 23 23 21 19 19 18 15 14 19 21 21 21 21 21 21 22 22 22
32 33 33 31 33 33 33 29 32 34 30 30 29 30 28 28 31 32 32 32 30 29 27 25 24 23 22 23 20 19 16 14 16 18 16 18 20 20 19 19 18 15 20 20
28 30 31 27 30 30 31 29 28 25 26 26 28 30 30 29 30 31 31 32 31 29 26 26 24 22 22 22 22 20 16 10 15 14 10 10 18 16 15 14 15 14 14 17
28 30 22 25 31 31 30 30 29 28 27 27 27 31 33 32 30 31 32 32 31 29 27 26 24 22 22 21 21 20 20 17 13 13 10 6 8 8 8 11 10 13 14 16
26 24 25 25 27 27 27 26 28 28 28 27 30 29 28 31 31 32 34 33 32 30 28 24 23 22 21 20 20 19 20 21 20 16 12 10 11 10 9 11 10 10 14 16
26 24 19 22 24 29 26 23 26 27 27 28 28 24 29 30 32 33 32 31 30 28 27 25 23 22 21 19 19 19 20 21 21 21 20 17 16 13 12 14 13 16 16 13
26 24 26 27 26 28 21 20 26 28 30 31 28 29 30 32 30 30 27 27 28 27 26 24 23 22 18 17 17 18 21 22 22 23 23 22 21 21 19 19 18 18 17 15
27 25 21 29 28 24 26 27 25 29 31 31 29 28 29 30 28 28 27 27 25 25 24 24 22 21 17 17 15 18 19 20 21 22 24 24 23 22 20 20 19 17 15 15
28 26 30 30 28 29 28 26 26 28 31 31 28 29 30 29 29 27 25 24 21 22 20 21 23 21 19 16 18 19 18 18 19 20 20 21 21 23 21 21 18 16 15 13
32 30 31 31 31 33 32 30 29 32 32 31 31 30 29 29 28 26 23 22 20 20 19 17 19 22 19 19 20 20 18 17 15 15 11 10 18 23 22 20 17 17 14 9
32 30 28 29 30 32 32 31 32 33 33 32 31 30 29 29 28 26 23 21 21 21 21 20 19 17 18 20 21 21 20 19 21 20 17 13 13 16 21 14 18 14 10 10
28 30 29 28 30 34 32 32 32 32 32 32 31 30 30 29 28 25 23 21 20 20 20 19 19 19 20 21 21 21 20 21 21 19 18 18 17 17 22 21 20 16 15 13
29 31 31 30 31 35 32 32 34 32 32 32 32 32 31 29 28 26 23 21 20 19 19 19 19 19 19 20 20 20 19 21 21 19 17 16 18 17 15 18 16 16 16 16
31 31 30 32 28 34 35 34 37 35 34 33 33 32 31 30 28 26 24 23 21 20 19 19 18 19 20 21 20 21 21 21 20 18 17 16 15 14 15 14 11 7 16 18
30 31 30 29 31 32 34 33 33 33 34 34 33 32 31 29 28 27 26 24 22 22 21 19 19 19 20 21 20 20 21 20 20 18 16 15 14 14 14 13 12 8 9 12
27 29 28 28 28 29 33 32 31 33 34 33 32 32 31 30 28 27 26 25 23 22 22 20 19 19 20 20 19 20 19 19 19 17 15 15 14 14 14 13 12 11 9 8
25 25 28 28 28 28 32 33 34 34 34 33 32 31 30 29 26 25 24 24 22 20 21 20 18 19 19 19 19 20 20 20 19 18 16 16 15 15 15 14 13 12 10 6
30 28 28 28 29 30 31 33 33 34 34 33 28 26 25 26 26 23 21 19 16 13 13 15 17 18 17 17 19 20 20 20 20 20 19 17 16 16 16 15 14 13 8 5
30 30 31 32 32 32 31 31 31 33 32 28 26 25 23 21 23 17 18 16 15 15 14 15 21 18 18 19 20 20 20 20 20 20 20 18 19 19 17 16 14 12 10 10
31 30 30 29 29 30 29 27 27 26 25 27 24 23 21 16 17 16 12 14 13 17 19 20 21 20 20 21 21 20 19 18 19 18 17 17 17 16 16 15 12 9 9 9
25 24 22 21 21 24 24 25 25 22 22 21 21 19 15 11 11 12 15 17 15 20 20 20 20 20 21 20 20 19 18 17 16 17 16 15 15 14 14 13 11 9 8 8
23 23 23 22 21 21 22 23 21 19 16 15 13 14 13 12 13 14 13 18 19 16 19 20 20 20 20 20 19 17 15 16 15 15 14 13 12 11 10 10 10 9 9 8
24 25 25 25 25 25 25 24 21 19 18 16 15 14 16 16 17 18 18 20 19 15 20 20 19 19 18 19 17 15 13 15 13 10 9 10 10 10 9 8 8 10 9 8
27 26 25 24 25 25 24 25 25 24 24 24 23 21 20 17 16 20 20 17 13 15 17 18 18 17 16 16 16 12 11 8 7 8 8 11 11 10 10 10 10 9 9 7
26 25 26 25 25 25 25 25 25 24 24 23 22 22 20 19 15 19 21 20 19 15 14 14 16 13 11 10 10 8 8 7 7 8 10 12 12 12 12 11 9 8 6 5
26 25 25 26 25 26 25 25 24 24 23 21 19 9 9 14 17 17 19 19 16 11 10 8 7 7 8 8 7 6 5 7 8 10 11 11 10 8 8 7 6 6 5 3
29 28 28 27 27 26 26 25 24 23 22 16 19 14 14 13 12 14 10 11 10 8 6 3 5 6 6 5 7 8 10 10 12 11 10 8 7 7 6 5 3 1 1 -1
Lifted_Index
1 1 1 1 1 2 2 2 2 2 2 2 2 2 3 3 3 3 3 2 2 2 2 1 2 2 3 4 5 6 6 7 9 12 13 14 15 15 15 15 15 15 15 15
1 2 2 2 1 2 2 2 2 2 2 2 2 2 2 3 3 2 2 2 2 2 2 1 1 2 3 4 5 5 6 7 10 12 14 14 14 14 14 15 15 15 15 15
2 2 2 2 2 2 2 2 2 2 2 2 2 2 2 2 2 2 1 1 1 1 1 1 1 2 3 4 4 5 6 8 10 12 14 14 14 14 14 15 15 15 15 15
1 2 2 2 3 2 2 2 2 2 2 2 2 2 2 2 1 1 1 1 1 1 2 2 2 2 3 4 4 5 6 8 11 13 14 14 14 14 14 15 15 15 15 15
1 1 2 2 3 3 2 2 2 2 2 2 2 2 2 1 1 1 1 1 2 2 2 3 3 3 3 4 5 5 7 9 12 13 14 14 14 14 15 15 16 16 15 15
1 1 1 2 2 2 2 2 2 2 2 2 2 2 1 1 1 1 2 2 2 3 3 3 4 4 4 4 5 6 8 11 13 14 14 14 14 15 15 15 15 16 16 16
1 1 1 1 2 1 1 2 2 2 1 1 2 1 1 1 1 2 2 3 3 3 4 4 4 4 5 5 6 8 10 12 14 14 14 15 15 15 15 15 15 15 15 16
0 0 1 1 1 1 1 1 1 1 1 1 1 1 1 1 2 3 3 4 4 4 4 4 4 5 5 6 7 9 11 12 14 14 14 15 15 15 15 15 14 14 15 15
0 0 1 1 1 1 1 1 1 1 1 1 0 0 1 1 2 3 4 4 4 4 4 4 5 5 6 7 8 9 10 12 13 14 14 15 15 15 15 15 14 14 14 14
1 1 1 1 1 1 1 1 1 1 1 1 0 0 1 1 2 3 3 4 4 4 4 4 5 6 6 7 8 9 10 12 14 14 15 15 16 15 15 15 14 14 14 14
1 1 1 1 1 0 1 1 1 1 1 0 0 0 1 1 2 2 3 3 4 4 4 4 5 6 7 8 9 9 10 12 14 15 15 15 16 15 15 15 15 14 15 15
1 1 1 1 1 1 0 0 0 0 0 1 0 1 1 1 2 2 3 3 3 3 4 4 5 6 7 9 9 9 10 11 13 15 15 15 15 15 15 15 15 15 16 16
1 1 1 1 1 0 0 0 0 0 0 0 1 1 1 1 2 2 3 3 3 4 4 5 5 6 8 9 10 9 10 11 13 15 15 15 15 14 14 15 15 16 17 18
1 1 0 0 0 0 0 0 -0 -0 0 0 0 1 1 1 1 2 2 3 3 4 5 5 6 7 8 10 10 10 10 11 13 15 15 15 15 15 15 15 15 16 17 18
2 1 1 1 1 1 1 0 0 0 -0 -0 0 0 1 1 1 2 2 3 4 5 5 6 6 7 9 10 10 10 11 12 14 16 16 16 15 15 15 15 15 15 16 17
3 3 2 2 1 1 1 1 0 -0 -0 -0 0 0 1 1 1 1 2 3 4 5 6 7 7 8 9 10 10 11 12 14 15 16 16 16 16 16 16 16 15 16 16 16
3 3 3 3 2 1 1 1 -0 -1 -1 -0 -0 0 1 1 1 1 2 4 5 6 7 8 8 9 10 11 11 12 14 15 16 16 16 16 16 16 16 16 16 16 16 17
2 3 3 3 2 1 1 0 -1 -1 -1 -0 -0 0 1 1 2 2 3 4 5 7 8 9 9 10 11 12 12 13 14 15 16 16 17 16 16 16 16 16 16 16 17 17
2 2 3 2 1 1 0 0 -0 -1 -0 -0 0 1 2 2 3 3 4 5 6 7 8 9 10 11 12 12 13 14 14 15 16 16 16 16 16 16 16 16 16 16 17 17
2 2 2 1 1 0 0 0 0 0 0 0 1 2 3 3 3 4 5 6 7 7 8 9 10 11 12 13 14 14 14 15 15 16 16 16 16 15 16 16 16 16 16 17
2 2 1 1 1 0 0 0 1 1 1 1 2 3 3 4 4 5 6 7 7 8 9 10 11 12 13 13 14 14 15 15 15 15 15 15 15 15 15 15 16 16 16 17
1 1 1 1 1 1 1 1 1 2 2 2 3 3 4 4 5 6 7 7 8 9 10 10 11 12 13 14 14 14 14 15 15 15 15 15 15 15 15 15 15 16 16 16
2 2 2 2 2 2 2 2 2 3 3 3 4 5 5 6 6 7 8 9 10 10 11 11 12 13 13 14 14 14 14 14 15 15 15 15 15 15 15 15 15 15 16 16
4 4 3 3 3 3 3 3 4 4 5 5 6 6 7 7 8 9 9 10 11 11 12 12 13 13 13 14 14 14 14 14 15 15 15 15 15 15 15 15 15 15 15 16
5 5 5 5 4 4 4 5 5 5 6 6 7 8 9 9 9 10 11 11 12 12 12 13 13 13 14 14 14 14 14 14 15 15 14 14 14 14 14 14 15 15 15 16
6 6 6 6 6 6 6 6 6 6 7 7 8 9 9 10 10 11 11 12 12 12 13 13 13 13 13 13 14 14 14 14 14 14 14 14 14 14 14 14 15 15 15 16
6 6 6 6 6 6 6 6 6 7 7 8 8 9 10 10 11 11 11 12 12 12 13 13 13 13 13 13 14 14 14 14 14 14 14 14 14 14 14 14 15 15 16 16